User: anonymous   Login
Location: Vancouver
(49.2500°N, 123.1330°W)
Time: 00:56:57
(UTC-07:00)
Language:

Transit 2A Rocket - Orbit

View from above orbital plane
View from above orbital plane
View from above satellite
View from above satellite

Ground track
Ground track

The orbit data is extracted from the following two-line orbital elements,

1 00047U 60007C   16236.66055132 -.00000001  00000-0  24769-4 0  9994
2 00047  66.6651 281.1934 0235347 243.6254 114.0519 14.41849385934162
Epoch (UTC): 23 August 2016 15:51:11
Eccentricity: 0.0235347
inclination: 66.6651°
perigee height: 584 km
apogee height: 920 km
right ascension of ascending node: 281.1934°
argument of perigee: 243.6254°
revolutions per day: 14.41849385
mean anomaly at epoch: 114.0519°
orbit number at epoch: 93416

The dashed part of the orbit path shows where the satellite is in the earth's shadow,  

DLR